Location: Domont
(49.0278°N, 2.3264°E)
Time: 11:35:44
(UTC+00:00)

DX 1 - Pass Details

Date: 30 June 2022
Orbit: 617 x 629 km, 98.4° (Epoch: 10 August)

Event Time Altitude Azimuth Distance (km) Brightness Sun altitude
Rises 22:16:55 0° 4° (N) 2,934 ? -14.6°
Reaches altitude 10° 22:19:26 10° 351° (N) 2,020 ? -14.8°
Maximum altitude 22:22:56 24° 298° (WNW) 1,317 ? -15.0°
Drops below altitude 10° 22:26:25 10° 245° (WSW) 2,004 ? -15.2°
Sets 22:28:55 0° 231° (SW) 2,905 ? -15.4°
